Starlink 35809

operational
NORAD ID: 66358 Int'l Des: 2025-254 Owner: SPXS Country: US Constellation: starlink
LEOCIRCULAR

Über Starlink 35809

Beschreibung wird geladen...

Live-Position

3D-Globus wird geladen...

Nächste Überflüge

Höhenverlauf

Altitude vs Time

uPlot chart will show altitude changes over time

Zweizeiliger Elementsatz

1 66358C 25254AB 25311.11715278 .00520850 00000+0 76819-3 0 3111
2 66358 53.1600 93.7256 0009210 262.0427 119.0025 16.03650548 19
Epoch: 7. Nov. 2025 • Age: 21 hours

Aktueller Status

Höhe 265.0 km
Geschwindigkeit 7.75 km/s
Subsatellitenpunkt -15.63°S, 81.75°E
Startdatum 6. Nov. 2025
Alter 1 days
Typ internet

Technische Details

Klassifizierung Payload
Masse 575.00 kg
Trockenmasse 530.00 kg
Gesamtmasse 575.00 kg
Länge 0.30 m
Durchmesser 4.10 m
Spannweite 29.00 m
Form Box + pan
Hersteller SPXS
Bus-Typ Starlink V2MO
Phasenstatus In Orbit
Besitzer/Staat SPXS/US

Große Konstellationen

Loading constellations...